User: anonymous   Login
Location: Cutler
(25.6150°N, 80.3110°W)
Time: 20:59:35
(UTC-04:00)
Language:

Cosmos 2360 Rocket - Orbit

View from above orbital plane
View from above orbital plane
View from above satellite
View from above satellite

Ground track
Ground track

The orbit data is extracted from the following two-line orbital elements,

1 25407U 98045B   16125.20079256  .00000142  00000-0  96574-4 0  9992
2 25407  71.0107 180.8902 0005864 118.5218 241.6496 14.15742978918292
Epoch (UTC): 04 May 2016 04:49:08
Eccentricity: 0.0005864
inclination: 71.0107°
perigee height: 835 km
apogee height: 844 km
right ascension of ascending node: 180.8902°
argument of perigee: 118.5218°
revolutions per day: 14.15742978
mean anomaly at epoch: 241.6496°
orbit number at epoch: 91829

The dashed part of the orbit path shows where the satellite is in the earth's shadow,  

DLR